User: anonymous   Login
Location: Unspecified
(0.0000°N, 0.0000°E)
Time: 21:25:16
(UTC+00:00)
Language:

UME 2 Rocket - Orbit

View from above orbital plane
View from above orbital plane
View from above satellite
View from above satellite

Ground track
Ground track

The orbit data is extracted from the following two-line orbital elements,

1 10674U 78018A   18052.57260469 -.00000052  00000-0 -26090-5 0  9998
2 10674  69.3595 255.7782 0163439 166.8388 262.5590 13.43606566962881
Epoch (UTC): 21 February 2018 13:44:33
Eccentricity: 0.0163439
inclination: 69.3595°
perigee height: 974 km
apogee height: 1218 km
right ascension of ascending node: 255.7782°
argument of perigee: 166.8388°
revolutions per day: 13.43606566
mean anomaly at epoch: 262.5590°
orbit number at epoch: 96288

The dashed part of the orbit path shows where the satellite is in the earth's shadow,  

DLR